カタログに戻る

STARLINK-37291

運用中通信VLEO
NORAD 68560·PAYLOAD·🇺🇸 United States

打ち上げ Apr 2, 2026 から Cape Canaveral Space Force Station

Loading…

次のパス (今後24時間)

TLE

最新Source: CelesTrak SupGP

元期: Sep 14, 2026, 23:24 UTC

1 68560C 26070U   26257.97548611 -.00044634  00000+0 -13185-2 0  2572
2 68560  53.1579 199.3649 0001335  90.8420 199.1039 15.34417725    15

AllMySatでSTARLINK-37291をリアルタイム追跡

Download on the App Store